| time (UTC) | temp F | wind direction | speed MPH | gust MPH | rain 1hr in | rain 24hr in | rain mn in | humidity % | barometer mb |
| 20260506045018 | 50 | 219 | 2.0 | 7.0 | 0.00 | 0.00 | 0.00 | 89 | 1009.0 |
| 20260506044039 | 51 | 220 | 2.0 | 5.0 | 0.00 | 0.00 | 0.00 | 88 | 1009.0 |
| 20260506043019 | 51 | 218 | 2.0 | 5.0 | 0.00 | 0.00 | 0.00 | 88 | 1009.0 |
| 20260506042019 | 51 | 208 | 2.0 | 8.0 | 0.00 | 0.00 | 0.00 | 88 | 1009.0 |
| 20260506041019 | 52 | 208 | 2.0 | 5.0 | 0.00 | 0.00 | 0.00 | 87 | 1008.8 |
| 20260506040019 | 52 | 217 | 2.0 | 5.0 | 0.00 | 0.00 | 0.00 | 87 | 1008.8 |
| 20260506035019 | 52 | 215 | 2.0 | 7.0 | 0.00 | 0.00 | 0.00 | 87 | 1008.8 |
| 20260506034020 | 51 | 226 | 2.0 | 7.0 | 0.00 | 0.00 | 0.00 | 88 | 1008.7 |
| 20260506033100 | 51 | 242 | 2.0 | 6.0 | 0.00 | 0.00 | 0.00 | 90 | 1008.6 |
| 20260506032020 | 51 | 251 | 2.0 | 6.0 | 0.00 | 0.00 | 0.00 | 89 | 1008.6 |
| 20260506031017 | 52 | 257 | 1.0 | 4.0 | 0.00 | 0.00 | 0.00 | 87 | 1008.6 |
| 20260506030020 | 53 | 233 | 1.0 | 3.0 | 0.00 | 0.00 | 0.00 | 86 | 1008.7 |
| 20260506025040 | 52 | 272 | 2.0 | 7.0 | 0.00 | 0.00 | 0.00 | 86 | 1008.7 |
| 20260506024020 | 52 | 280 | 3.0 | 7.0 | 0.00 | 0.00 | 0.00 | 87 | 1008.7 |
| 20260506023021 | 53 | 275 | 1.0 | 4.0 | 0.00 | 0.00 | 0.00 | 86 | 1008.7 |
| 20260506022018 | 53 | 286 | 1.0 | 3.0 | 0.00 | 0.00 | 0.00 | 84 | 1008.7 |
| 20260506021018 | 53 | 235 | 1.0 | 4.0 | 0.00 | 0.00 | 0.00 | 84 | 1008.7 |
| 20260506020018 | 53 | 237 | 2.0 | 5.0 | 0.00 | 0.00 | 0.00 | 85 | 1008.8 |
| 20260506015018 | 53 | 238 | 2.0 | 6.0 | 0.00 | 0.00 | 0.00 | 84 | 1008.9 |
| 20260506014021 | 54 | 229 | 2.0 | 5.0 | 0.00 | 0.00 | 0.00 | 82 | 1008.8 |
| 20260506013018 | 54 | 231 | 2.0 | 5.0 | 0.00 | 0.00 | 0.00 | 81 | 1008.8 |
| 20260506012039 | 55 | 255 | 2.0 | 5.0 | 0.00 | 0.00 | 0.00 | 80 | 1008.7 |
| 20260506011019 | 55 | 243 | 1.0 | 4.0 | 0.00 | 0.00 | 0.00 | 80 | 1008.6 |
| 20260506010019 | 55 | 226 | 1.0 | 5.0 | 0.00 | 0.00 | 0.00 | 80 | 1008.5 |
| 20260506005040 | 55 | 243 | 1.0 | 4.0 | 0.00 | 0.00 | 0.00 | 79 | 1008.4 |
| 20260506004039 | 56 | 234 | 2.0 | 5.0 | 0.00 | 0.00 | 0.00 | 77 | 1008.1 |
| 20260506003019 | 57 | 228 | 2.0 | 7.0 | 0.00 | 0.00 | 0.00 | 76 | 1008.1 |
| 20260506002020 | 58 | 201 | 3.0 | 9.0 | 0.00 | 0.00 | 0.00 | 75 | 1007.8 |
| 20260506001020 | 59 | 203 | 3.0 | 8.0 | 0.00 | 0.00 | 0.00 | 72 | 1007.7 |
| 20260506000019 | 61 | 215 | 3.0 | 9.0 | 0.00 | 0.00 | 0.00 | 70 | 1007.5 |
| 20260505235020 | 62 | 224 | 4.0 | 10.0 | 0.00 | 0.00 | 0.00 | 68 | 1007.2 |
| 20260505234018 | 62 | 226 | 4.0 | 11.0 | 0.00 | 0.00 | 0.00 | 65 | 1007.2 |
| 20260505233017 | 57 | 264 | 9.0 | 21.0 | 0.00 | 0.00 | 0.00 | 72 | 1007.7 |
| 20260505232021 | 53 | 287 | 3.0 | 8.0 | 0.00 | 0.00 | 0.00 | 83 | 1006.9 |
| 20260505231021 | 53 | 231 | 3.0 | 7.0 | 0.00 | 0.00 | 0.00 | 83 | 1005.9 |
| 20260505230021 | 53 | 236 | 3.0 | 8.0 | 0.00 | 0.00 | 0.00 | 83 | 1005.6 |
| 20260505225018 | 54 | 237 | 3.0 | 9.0 | 0.00 | 0.00 | 0.00 | 82 | 1005.4 |
| 20260505224018 | 54 | 222 | 4.0 | 9.0 | 0.00 | 0.00 | 0.00 | 81 | 1005.3 |
| 20260505223059 | 55 | 240 | 3.0 | 8.0 | 0.00 | 0.00 | 0.00 | 79 | 1005.3 |
| 20260505222019 | 56 | 244 | 4.0 | 8.0 | 0.00 | 0.00 | 0.00 | 78 | 1005.2 |
| 20260505221019 | 56 | 232 | 5.0 | 10.0 | 0.00 | 0.00 | 0.00 | 78 | 1005.2 |
| 20260505220019 | 56 | 242 | 5.0 | 10.0 | 0.00 | 0.00 | 0.00 | 79 | 1005.1 |
| 20260505215020 | 56 | 240 | 5.0 | 9.0 | 0.00 | 0.00 | 0.00 | 79 | 1005.0 |
| 20260505214020 | 56 | 239 | 5.0 | 10.0 | 0.00 | 0.00 | 0.00 | 79 | 1005.0 |
| 20260505213020 | 58 | 240 | 5.0 | 11.0 | 0.00 | 0.00 | 0.00 | 76 | 1005.0 |
| 20260505212100 | 57 | 219 | 4.0 | 8.0 | 0.00 | 0.00 | 0.00 | 75 | 1004.9 |
| 20260505211040 | 57 | 228 | 4.0 | 10.0 | 0.00 | 0.00 | 0.00 | 76 | 1004.9 |
| 20260505210017 | 57 | 219 | 4.0 | 10.0 | 0.00 | 0.00 | 0.00 | 76 | 1004.9 |
| 20260505205020 | 58 | 220 | 3.0 | 8.0 | 0.00 | 0.00 | 0.00 | 75 | 1004.8 |
| 20260505204021 | 58 | 225 | 4.0 | 10.0 | 0.00 | 0.00 | 0.00 | 74 | 1005.0 |
| 20260505203020 | 57 | 234 | 4.0 | 9.0 | 0.00 | 0.00 | 0.00 | 77 | 1005.0 |
| 20260505202021 | 57 | 244 | 4.0 | 9.0 | 0.00 | 0.00 | 0.00 | 77 | 1005.1 |
| 20260505201021 | 57 | 242 | 5.0 | 9.0 | 0.00 | 0.00 | 0.00 | 77 | 1005.3 |
| 20260505200038 | 57 | 243 | 5.0 | 9.0 | 0.00 | 0.00 | 0.00 | 78 | 1005.4 |
| 20260505195018 | 57 | 241 | 5.0 | 12.0 | 0.00 | 0.00 | 0.00 | 77 | 1005.5 |
| 20260505194019 | 57 | 235 | 5.0 | 11.0 | 0.00 | 0.00 | 0.00 | 78 | 1005.6 |
| 20260505193038 | 57 | 234 | 4.0 | 10.0 | 0.00 | 0.00 | 0.00 | 79 | 1005.8 |
| 20260505192019 | 56 | 235 | 3.0 | 9.0 | 0.00 | 0.00 | 0.00 | 81 | 1005.9 |
| 20260505191039 | 57 | 239 | 5.0 | 10.0 | 0.00 | 0.00 | 0.00 | 79 | 1006.2 |
| 20260505190019 | 57 | 235 | 4.0 | 9.0 | 0.00 | 0.00 | 0.00 | 79 | 1006.5 |
| 20260505185020 | 56 | 245 | 5.0 | 11.0 | 0.00 | 0.00 | 0.00 | 80 | 1006.6 |
| 20260505184019 | 55 | 241 | 5.0 | 10.0 | 0.00 | 0.00 | 0.00 | 81 | 1006.6 |
| 20260505183020 | 56 | 248 | 5.0 | 9.0 | 0.00 | 0.00 | 0.00 | 80 | 1006.6 |
| 20260505182017 | 56 | 243 | 4.0 | 11.0 | 0.00 | 0.00 | 0.00 | 80 | 1006.6 |
| 20260505181020 | 57 | 239 | 3.0 | 8.0 | 0.00 | 0.00 | 0.00 | 77 | 1006.6 |
| 20260505180020 | 57 | 235 | 4.0 | 10.0 | 0.00 | 0.00 | 0.00 | 78 | 1006.7 |
| 20260505175040 | 57 | 240 | 4.0 | 9.0 | 0.00 | 0.00 | 0.00 | 78 | 1007.0 |
| 20260505174040 | 57 | 202 | 3.0 | 10.0 | 0.00 | 0.00 | 0.00 | 78 | 1007.0 |
| 20260505173017 | 56 | 216 | 3.0 | 11.0 | 0.00 | 0.00 | 0.00 | 78 | 1007.0 |
| 20260505172017 | 56 | 226 | 3.0 | 7.0 | 0.00 | 0.00 | 0.00 | 78 | 1007.0 |
| 20260505171018 | 56 | 219 | 4.0 | 11.0 | 0.00 | 0.00 | 0.00 | 79 | 1007.4 |
| 20260505170021 | 57 | 204 | 4.0 | 11.0 | 0.00 | 0.00 | 0.00 | 77 | 1007.6 |
| 20260505165021 | 57 | 209 | 3.0 | 9.0 | 0.00 | 0.00 | 0.00 | 77 | 1007.6 |
| 20260505164018 | 58 | 206 | 3.0 | 10.0 | 0.00 | 0.00 | 0.00 | 76 | 1007.8 |
| 20260505163018 | 58 | 205 | 3.0 | 8.0 | 0.00 | 0.00 | 0.00 | 75 | 1008.0 |
| 20260505162019 | 58 | 259 | 2.0 | 7.0 | 0.00 | 0.00 | 0.00 | 75 | 1008.1 |
| 20260505161019 | 57 | 222 | 3.0 | 7.0 | 0.00 | 0.00 | 0.00 | 77 | 1008.3 |
| 20260505153040 | 56 | 208 | 3.0 | 8.0 | 0.00 | 0.00 | 0.00 | 79 | 1008.8 |
| 20260505152040 | 56 | 217 | 3.0 | 7.0 | 0.00 | 0.00 | 0.00 | 79 | 1008.8 |
| 20260505151020 | 55 | 239 | 2.0 | 6.0 | 0.00 | 0.00 | 0.00 | 81 | 1008.9 |
| 20260505125019 | 52 | 225 | 3.0 | 9.0 | 0.00 | 0.00 | 0.00 | 86 | 1008.9 |
| 20260505124019 | 52 | 206 | 2.0 | 7.0 | 0.00 | 0.00 | 0.00 | 86 | 1008.8 |
| 20260505123039 | 52 | 227 | 2.0 | 6.0 | 0.00 | 0.00 | 0.00 | 87 | 1008.8 |
| 20260505122019 | 51 | 223 | 3.0 | 7.0 | 0.00 | 0.00 | 0.00 | 88 | 1008.7 |
| 20260505121020 | 51 | 220 | 3.0 | 8.0 | 0.00 | 0.00 | 0.00 | 88 | 1008.8 |
| 20260505120017 | 51 | 216 | 2.0 | 6.0 | 0.00 | 0.00 | 0.00 | 89 | 1008.9 |
| 20260505115037 | 50 | 217 | 2.0 | 6.0 | 0.00 | 0.00 | 0.00 | 89 | 1009.0 |
| 20260505114021 | 50 | 224 | 2.0 | 5.0 | 0.00 | 0.00 | 0.00 | 90 | 1009.1 |
| 20260505113020 | 49 | 238 | 2.0 | 6.0 | 0.00 | 0.00 | 0.00 | 91 | 1009.1 |
| 20260505112021 | 49 | 223 | 2.0 | 6.0 | 0.00 | 0.00 | 0.00 | 91 | 1009.1 |
| 20260505111020 | 49 | 225 | 2.0 | 5.0 | 0.00 | 0.00 | 0.00 | 92 | 1009.0 |
| 20260505102019 | 47 | 335 | 1.0 | 3.0 | 0.00 | 0.00 | 0.00 | 95 | 1008.9 |
| 20260505101019 | 47 | 311 | 0.0 | 2.0 | 0.00 | 0.00 | 0.00 | 94 | 1008.9 |
| 20260505100019 | 47 | 329 | 0.0 | 2.0 | 0.00 | 0.00 | 0.00 | 93 | 1009.0 |
| 20260505095018 | 47 | 338 | 0.0 | 2.0 | 0.00 | 0.00 | 0.00 | 93 | 1009.0 |
| 20260505094059 | 48 | 335 | 1.0 | 2.0 | 0.00 | 0.00 | 0.00 | 92 | 1009.0 |
| 20260505093057 | 48 | 295 | 1.0 | 3.0 | 0.00 | 0.00 | 0.00 | 91 | 1008.9 |
| 20260505092017 | 48 | 262 | 1.0 | 3.0 | 0.00 | 0.00 | 0.00 | 91 | 1008.9 |
| 20260505091020 | 48 | 223 | 1.0 | 3.0 | 0.00 | 0.00 | 0.00 | 90 | 1009.0 |
| 20260505090019 | 48 | 219 | 1.0 | 4.0 | 0.00 | 0.00 | 0.00 | 91 | 1009.0 |
| 20260505085100 | 48 | 223 | 1.0 | 6.0 | 0.00 | 0.00 | 0.00 | 91 | 1009.1 |
| 20260505084059 | 48 | 250 | 1.0 | 4.0 | 0.00 | 0.00 | 0.00 | 91 | 1009.2 |
| 20260505083018 | 48 | 247 | 1.0 | 3.0 | 0.00 | 0.00 | 0.00 | 90 | 1009.2 |
| 20260505082017 | 49 | 244 | 1.0 | 6.0 | 0.00 | 0.00 | 0.00 | 89 | 1009.3 |
| 20260505081018 | 49 | 219 | 2.0 | 4.0 | 0.00 | 0.00 | 0.00 | 89 | 1009.3 |
| 20260505080019 | 48 | 225 | 2.0 | 5.0 | 0.00 | 0.00 | 0.00 | 89 | 1009.3 |
| 20260505075019 | 49 | 256 | 1.0 | 3.0 | 0.00 | 0.00 | 0.00 | 88 | 1009.3 |
| 20260505074018 | 50 | 231 | 1.0 | 3.0 | 0.00 | 0.00 | 0.00 | 86 | 1009.3 |
| 20260505073059 | 50 | 231 | 2.0 | 5.0 | 0.00 | 0.00 | 0.00 | 83 | 1009.3 |
| 20260505072019 | 51 | 232 | 2.0 | 5.0 | 0.00 | 0.00 | 0.00 | 80 | 1009.2 |
| 20260505071018 | 51 | 233 | 3.0 | 7.0 | 0.00 | 0.00 | 0.00 | 80 | 1009.1 |
| 20260505070019 | 51 | 230 | 4.0 | 8.0 | 0.00 | 0.00 | 0.00 | 80 | 1009.1 |
| 20260505065039 | 50 | 236 | 4.0 | 7.0 | 0.00 | 0.00 | 0.00 | 83 | 1009.1 |
| 20260505064019 | 49 | 239 | 2.0 | 5.0 | 0.00 | 0.00 | 0.00 | 88 | 1009.0 |
| 20260505063019 | 49 | 232 | 1.0 | 5.0 | 0.00 | 0.00 | 0.00 | 87 | 1009.0 |
| 20260505062019 | 49 | 238 | 2.0 | 5.0 | 0.00 | 0.00 | 0.00 | 88 | 1009.1 |
| 20260505061040 | 49 | 235 | 2.0 | 4.0 | 0.00 | 0.00 | 0.00 | 87 | 1009.1 |
| 20260505060040 | 49 | 233 | 2.0 | 4.0 | 0.00 | 0.00 | 0.00 | 87 | 1009.3 |
| 20260505055017 | 49 | 233 | 2.0 | 5.0 | 0.00 | 0.00 | 0.00 | 86 | 1009.3 |
| 20260505054017 | 49 | 223 | 1.0 | 4.0 | 0.00 | 0.00 | 0.00 | 86 | 1009.3 |
| 20260505053040 | 49 | 236 | 1.0 | 5.0 | 0.00 | 0.00 | 0.00 | 86 | 1009.3 |
| 20260505052020 | 49 | 250 | 1.0 | 5.0 | 0.00 | 0.00 | 0.00 | 86 | 1009.3 |
| 20260505051020 | 50 | 236 | 1.0 | 4.0 | 0.00 | 0.00 | 0.00 | 84 | 1009.3 |